Back to catalog

ONEWEB-0188

AliveCommunicationsPO
NORAD 48231·PAYLOAD·🇬🇧 United Kingdom

Launched Apr 25, 2021 from Vostochny Cosmodrome

Loading…

Next Passes (next 24 hours)

TLE

FreshSource: CelesTrak SupGP

Epoch: Sep 14, 2026, 15:52 UTC

1 48231C 21031X   26257.66126574 -.00001037  00000+0 -28003-2 0  2578
2 48231  87.8895 271.8743 0001904  93.3494 327.5186 13.14503871    19

Track ONEWEB-0188 in real time with AllMySat

Download on the App Store